Location: Sungai Buloh
(3.1000°N, 113.0000°E)
Time: 15:57:00
(UTC+00:00)

Cosmos 1745 Rocket - Pass Details

Date: 12 January 2026
Orbit: 952 x 997 km, 83.0° (Epoch: 11 February)

Event Time Altitude Azimuth Distance (km) Brightness Sun altitude
Rises 20:27:25 0° 182° (S) 3,681 7.3 -31.0°
Reaches altitude 10° 20:29:56 10° 181° (S) 2,726 6.6 -30.5°
Maximum altitude 20:36:11 85° 93° (E) 976 3.9 -29.0°
Enters shadow 20:37:49 52° 10° (N) 1,180 4.2 -28.7°
